Flag for Netherlands Weather past 2 weeks in Zaandam, Netherlands

Now
59 °F

Passing clouds.


Feels Like: 59 °F
Forecast: 52 / 67 °F
Wind: 2 mph from Southeast

Location: Amsterdam Schiphol Airport

Current Time: Sep 1, 2014 at 11:04:54 PM

Latest Report: Sep 1, 2014 at 10:25 PM


Visibility: N/A

Pressure: 30.15 "Hg

Humidity: 94%

Dew point: 57 °F

Location of ZaandamLocation

Historic Weather in Zaandam — Graph

°F

Zaandam temperature yesterday

Maximum temperature yesterday: 66 °F (at 1:55 PM)
Minimum temperature yesterday: 54 °F (at 10:25 PM)
Average temperature yesterday: 59 °F

Past Weeks' High & Low Weather Summary

 TemperatureHumidityPressure
High70 °F (Aug 27, 3:55 PM)100% (Aug 19, 12:55 AM)30.12 "Hg (Aug 19, 12:55 AM)
Low46 °F (Aug 21, 5:55 AM)49% (Sep 1, 2:25 PM)29.59 "Hg (Aug 18, 3:55 AM)
Average58 °F84%29.91 "Hg
* Reported Aug 17 9:25 PM — Sep 1 9:55 PM, Zaandam, Weather by CustomWeather, © 2014

Note: Actual official high and low records may vary slightly from our data, if they occured in-between our weather recording intervals... More about our weather records

Advertising

Zaandam weather history for previous 24 hours

 ConditionsComfort  
Time TempWeatherWind HumidityBarometerVisibility
9:55 PM
Sep 1
59 °FClear.2 mph94%30.12 "Hg10 mi
9:25 PM61 °FSunny.2 mph88%30.12 "Hg10 mi
8:55 PM61 °FSunny.2 mph88%30.12 "Hg10 mi
8:25 PM61 °FSunny.2 mph88%30.12 "Hg10 mi
7:55 PM63 °FLight rain. Passing clouds.7 mph77%30.12 "HgN/A
7:25 PM64 °FPassing clouds.6 mph73%30.12 "HgN/A
6:55 PM64 °FPassing clouds.6 mph73%30.12 "HgN/A
6:25 PM66 °FPassing clouds.3 mph64%30.12 "HgN/A
5:55 PM66 °FPassing clouds.6 mph60%30.12 "HgN/A
5:25 PM68 °FPassing clouds.6 mph60%30.12 "HgN/A
4:55 PM68 °FPassing clouds.7 mph60%30.12 "HgN/A
4:25 PM66 °FPassing clouds.7 mph64%30.12 "HgN/A
3:55 PM66 °FPassing clouds.8 mph64%30.12 "HgN/A
3:25 PM66 °FPassing clouds.9 mph64%30.12 "HgN/A
2:55 PM70 °FPassing clouds.7 mph57%30.12 "HgN/A
2:25 PM68 °FPassing clouds.7 mph49%30.12 "HgN/A
1:55 PM66 °FPassing clouds.6 mph60%30.12 "HgN/A
1:25 PM66 °FPassing clouds.7 mph60%30.12 "HgN/A
12:55 PM68 °FPassing clouds.8 mph60%30.12 "HgN/A
12:25 PM66 °FPassing clouds.8 mph68%30.12 "HgN/A
11:55 AM64 °FPassing clouds.10 mph68%30.12 "HgN/A
11:25 AM64 °FPassing clouds.8 mph73%30.12 "HgN/A
10:55 AM64 °FPassing clouds.6 mph73%30.12 "HgN/A
10:25 AM63 °FPassing clouds.3 mph77%30.12 "HgN/A
9:55 AM63 °FPassing clouds.5 mph77%30.12 "HgN/A
9:25 AM61 °FPassing clouds.1 mph88%30.12 "HgN/A
8:55 AM57 °FPassing clouds.3 mph94%30.12 "HgN/A
8:25 AM55 °FPassing clouds.2 mph100%30.12 "HgN/A
7:55 AM55 °FScattered clouds.2 mph100%30.12 "HgN/A
7:25 AM52 °FPassing clouds.2 mph100%30.09 "HgN/A
6:55 AM50 °FPassing clouds.2 mph100%30.09 "HgN/A
6:25 AM50 °FFog.1 mph100%30.09 "HgN/A
5:55 AM52 °FFog.1 mph100%30.09 "HgN/A
5:25 AM50 °FFog.1 mph100%30.09 "HgN/A
4:55 AM50 °FFog.1 mph100%30.09 "HgN/A
4:25 AM52 °FFog.2 mph100%30.09 "HgN/A
3:55 AM50 °FFog.1 mph100%30.09 "HgN/A
3:25 AM52 °FFog.1 mph100%30.09 "HgN/A
2:55 AM52 °FFog.1 mph100%30.09 "HgN/A
2:25 AM52 °FFog.1 mph100%30.09 "HgN/A
1:55 AM52 °FFog.5 mph100%30.09 "HgN/A
1:25 AM52 °FFog.No wind100%30.07 "HgN/A
12:55 AM52 °FFog.3 mph100%30.07 "HgN/A
12:25 AM54 °FFog.1 mph100%30.07 "HgN/A
11:55 PM
Aug 31
54 °FPassing clouds.2 mph100%30.07 "HgN/A
11:25 PM55 °FPassing clouds.3 mph100%30.07 "HgN/A
Weather by CustomWeather, © 2014

See weather overviewHow to use our weather pages